User: anonymous   Login
Location: NJAA Observatory
(40.6819°N, 74.8979°W)
Time: 20:53:39
(UTC-04:00)
Language:

Cosmos 1939 Rocket - Orbit

View from above orbital plane
View from above orbital plane
View from above satellite
View from above satellite

Ground track
Ground track

The orbit data is extracted from the following two-line orbital elements,

1 19046U 88032B   15182.77015850  .00001164  00000-0  94058-4 0  9993
2 19046 097.6189 235.0482 0039533 251.1294 108.5642 15.01195145465118
Epoch (UTC): 01 July 2015 18:29:01
Eccentricity: 0.0039533
inclination: 97.6189°
perigee height: 536 km
apogee height: 590 km
right ascension of ascending node: 235.0482°
argument of perigee: 251.1294°
revolutions per day: 15.01195145
mean anomaly at epoch: 108.5642°
orbit number at epoch: 46511

The dashed part of the orbit path shows where the satellite is in the earth's shadow,  

DLR